Siemreap, Cambodia

5:46 AM +07 on January 24, 2018 (GMT +0700)
Siem Reap

Weather History for VDSR - January, 2014

Change the Weather History Date:

Wednesday, January 15, 2014

  Actual Average Record
Temperature  
Mean Temperature 70 °F -  
Max Temperature 78 °F - - ()
Min Temperature 62 °F - - ()
Cooling Degree Days 5    
Growing Degree Days 20 (Base 50)    
Moisture  
Dew Point 59 °F    
Average Humidity 65    
Maximum Humidity 88    
Minimum Humidity 47    
Precipitation  
Precipitation 0.00 in - - ()
Sea Level Pressure  
Sea Level Pressure 30.00 in    
Wind  
Wind Speed 2 mph ()    
Max Wind Speed 8 mph    
Max Gust Speed -    
Visibility 5.1 miles    
Events      
T = Trace of Precipitation, MM = Missing Value Source: Averaged Metar Reports

Daily Weather History Graph

Daily Weather History Graph

Search for Another Location

Airport or City:

Trip Planner

Search our weather history database for the weather conditions in past years. The results will help you decide how hot, cold, wet, or windy it might be!

Date:

Astronomy

Jan. 15, 2014 Rise Set
Actual Time 6:31 AM +07 5:56 PM +07
Civil Twilight 6:08 AM +07 6:19 PM +07
Nautical Twilight 5:42 AM +07 6:45 PM +07
Astronomical Twilight 5:16 AM +07 7:11 PM +07
Moon 5:18 PM +07 (1/15) 5:31 AM +07 (1/15)
Length of Visible Light 12h 10m
Length of Day
11h 25m
Waxing Gibbous, 99% of the Moon is Illuminated
Jan 15
Waxing Gibbous
Jan 16
Full
Jan 24
Last Quarter
Jan 31
New
Feb 7
First Quarter

Hourly Weather History & Observations

Time (+07) Temp. Dew Point Humidity Pressure Visibility Wind Dir Wind Speed Gust Speed Precip Events Conditions
12:00 AM 69.8 °F 57.2 °F 64% 29.98 in 5.6 mi North - - N/A   Unknown
7:00 AM 62.6 °F 59.0 °F 88% 30.04 in 3.1 mi Calm Calm - N/A   Partly Cloudy
7:30 AM 62.6 °F 59.0 °F 88% 30.04 in 3.1 mi Calm Calm - N/A   Partly Cloudy
8:00 AM 64.4 °F 57.2 °F 77% 30.06 in 3.1 mi North 3.5 mph - N/A   Partly Cloudy
8:30 AM 66.2 °F 57.2 °F 73% 30.06 in 3.1 mi North 3.5 mph - N/A   Mist
9:30 AM 69.8 °F 57.2 °F 64% 30.06 in 4.3 mi Calm Calm - N/A   Unknown
10:00 AM 71.6 °F 57.2 °F 60% 30.06 in 5.0 mi Calm Calm - N/A   Unknown
10:30 AM 73.4 °F 57.2 °F 57% 30.06 in 5.0 mi Calm Calm - N/A   Unknown
11:00 AM 75.2 °F 55.4 °F 50% 30.06 in - ENE 4.6 mph - N/A   Clear
11:30 AM 77.0 °F 55.4 °F 47% 30.04 in - Calm Calm - N/A   Clear
12:00 PM 77.0 °F 57.2 °F 50% 30.01 in - SW 5.8 mph - N/A   Clear
12:30 PM 77.0 °F 57.2 °F 50% 30.01 in - WSW 4.6 mph - N/A   Clear
1:30 PM 78.8 °F 57.2 °F 47% 29.98 in 5.6 mi SW 8.1 mph - N/A   Scattered Clouds
2:00 PM 78.8 °F 57.2 °F 47% 29.95 in 5.6 mi WSW 8.1 mph - N/A   Scattered Clouds
4:00 PM 78.8 °F 57.2 °F 47% 29.92 in 5.6 mi NW 6.9 mph - N/A   Scattered Clouds
4:30 PM 78.8 °F 57.2 °F 47% 29.92 in 5.6 mi NW 6.9 mph - N/A   Scattered Clouds
5:00 PM 78.8 °F 57.2 °F 47% 29.92 in 5.6 mi West 4.6 mph - N/A   Scattered Clouds
5:30 PM 77.0 °F 59.0 °F 54% 29.92 in 5.6 mi West 5.8 mph - N/A   Scattered Clouds
6:00 PM 75.2 °F 60.8 °F 61% 29.95 in 5.6 mi WSW 5.8 mph - N/A   Scattered Clouds
6:30 PM 73.4 °F 62.6 °F 69% 29.95 in 5.6 mi Variable 2.3 mph - N/A   Scattered Clouds
7:00 PM 73.4 °F 62.6 °F 69% 29.95 in 5.6 mi Variable 3.5 mph - N/A   Scattered Clouds
7:30 PM 71.6 °F 62.6 °F 73% 29.98 in 5.6 mi Variable 1.2 mph - N/A   Scattered Clouds
8:00 PM 71.6 °F 62.6 °F 73% 29.98 in 5.6 mi Variable 1.2 mph - N/A   Scattered Clouds
8:30 PM 71.6 °F 62.6 °F 73% 30.01 in 5.6 mi Variable 2.3 mph - N/A   Scattered Clouds
9:00 PM 69.8 °F 64.4 °F 83% 30.01 in 5.6 mi Calm Calm - N/A   Scattered Clouds
9:30 PM 69.8 °F 62.6 °F 78% 30.01 in 5.6 mi Variable 2.3 mph - N/A   Scattered Clouds
10:00 PM 69.8 °F 62.6 °F 78% 30.01 in 5.6 mi Variable 3.5 mph - N/A   Scattered Clouds
10:30 PM 69.8 °F 60.8 °F 73% 30.01 in 5.6 mi Variable 3.5 mph - N/A   Scattered Clouds
11:00 PM 69.8 °F 60.8 °F 73% 30.01 in 5.6 mi ENE 4.6 mph - N/A   Scattered Clouds
11:30 PM 68.0 °F 60.8 °F 78% 30.01 in 5.6 mi Variable 1.2 mph - N/A   Scattered Clouds